     2              OBSERVATION DATA    GPS                 RINEX VERSION / TYPE
GESARX 07-Mar-1990 USGS 15.03.95 14:26                      PGM / RUN BY / DATE
                                                            COMMENT
Transfer TI4100 GESAR --> Rinex Observation File            COMMENT
Original Marker Name: LGO7                                  COMMENT
Campaign Name: USGS-So. Cal Monits                          COMMENT
4-Character Station Name: LGO7                              COMMENT
6-Character Antenna Code: TI4100                            COMMENT
Vertical Measurement Point: PAE                             COMMENT
Vertical Offset to Rinex Ref. Point: 0.0000                 COMMENT
Radial Measurement Point: PAE                               COMMENT
Radial Offset to Rinex Ref. Point: 0.0842                   COMMENT
Antenna Height from Field Measurement: 1.2380 m             COMMENT
Original XYZ: -2595719.3441 -4539654.4632 3642039.2262      COMMENT
New XYZ position is based on association with SCEC monument COMMENT
E1E9P8X1+0011. Position of that monument is believed to be  COMMENT
valid to within 1 m horizontally; vertical accuracy         COMMENT
should be no worse than 3-times this value.                 COMMENT
                                                            COMMENT
Revised Rinex header created by UCSD GPS archive for        COMMENT
GSAC on 04-Apr-2000 (2000:095) 21:37:29 GMT                 COMMENT
For assistance contact dagnew@ucsd.edu                      COMMENT
or anderson@python.ucsd.edu                                 COMMENT
                                                            COMMENT
LGO 70 1977                                                 MARKER NAME
Stiffler US GEOLOGICAL SURVEY                               OBSERVER / AGENCY
UT-22 TI 4100 FIRMWARE UNKNOWN                              REC # / TYPE / VERS
4025 TI 4100                                                ANT # / TYPE
 -2595719.6248 -4539654.5273  3642039.5864                  APPROX POSITION XYZ
        1.2351        0.0000        0.0000                  ANTENNA: DELTA H/E/N
     1     1     0                                          WAVELENGTH FACT L1/2
     4    L1    L2    P1    P2                              # / TYPES OF OBSERV
    30                                                      INTERVAL
  1990    11    30     6    17   59.000000                  TIME OF FIRST OBS
  1990    11    30    12     4   29.000000                  TIME OF LAST OBS
                                                            END OF HEADER
 90 11 30  6 17 59.0800000  0  1 18
          .263 7         -.225 1  21182163.057 7  21182163.951 1
 90 11 30  6 18 29.0800000  0  1 18
     66287.538 7     51652.202 1  21194777.587 7  21194778.775 1
 90 11 30  6 18 59.0800000  0  1 18
    132986.243 7    103625.209 1  21207470.147 7  21207470.158 1
 90 11 30  6 19 29.0800000  0  1 18
    200095.276 7    155917.943 1  21220241.351 7  21220241.729 1
 90 11 30  6 19 59.0800000  0  1 18
    267610.559 8    208527.244 1  21233088.855 8  21233088.460 1
 90 11 30  6 20 29.0800000  0  1 18
    335533.802 8    261454.445 1  21246013.547 8  21246014.481 1
 90 11 30  6 20 59.0800000  0  1 18
    403864.037 8    314698.781 1  21259017.217 8  21259016.083 1
 90 11 30  6 21 29.0800000  0  1 18
    472599.259 7    368258.668 1  21272096.539 7  21272096.614 1
 90 11 30  6 21 59.0800000  0  1 18
    541738.299 8    422133.242 1  21285253.567 8  21285253.647 1
 90 11 30  6 22 29.0800000  0  1 18
    611279.304 8    476321.024 1  21298486.966 8  21298485.463 1
 90 11 30  6 22 59.0800000  0  1 18
    681222.269 8    530822.028 1  21311795.966 8  21311797.440 1
 90 11 30  6 23 29.0800000  0  1 18
    751565.301 8    585634.750 1  21325181.696 8  21325181.103 1
 90 11 30  6 23 59.0800000  0  1 18
    822307.030 7    640758.161 1  21338644.168 7  21338642.889 1
 90 11 30  6 24 29.0800000  0  1 18
    893446.194 8    696191.252 1  21352181.098 8  21352180.545 1
 90 11 30  6 24 59.0800000  0  1 18
    964981.065 7    751932.699 1  21365793.796 7  21365793.254 1
